Location: Benstorf
(52.0936°N, 9.6468°E)
Time: 12:28:30
(UTC+00:00)

Daily predictions for brighter satellites

Satellite Brightness Start Highest point End
(mag) Time Altitude Azimuth Time Altitude Azimuth Time Altitude Azimuth
ADEOS 3.7 18:19:50 10° SSE 18:25:04 88° WSW 18:30:19 10° NNW
Intercosmos 24 4.3 18:22:05 10° NNW 18:25:37 60° W 18:29:21 10° S
Cosmos 841 Rocket 3.7 18:20:41 10° S 18:25:41 51° ESE 18:30:41 10° NNE
Cosmos 1328 Rocket 4.1 18:24:22 10° N 18:28:22 37° ENE 18:32:22 10° SE
PAYLOAD B 4.3 18:22:56 10° SSE 18:28:29 67° ENE 18:34:03 10° NNW
Meteor 1-4 Rocket 3.5 18:27:16 10° NNE 18:29:13 18° ENE 18:31:09 10° ESE
Aureole 1 Rocket 4.2 18:25:21 10° NW 18:29:51 43° WSW 18:33:25 10° S
USA 308 -1.0 18:29:51 10° WNW 18:30:39 87° NE 18:31:35 15° ESE
Cosmos 1674 3.1 18:27:57 10° N 18:31:03 33° ENE 18:34:06 10° SE
Terra 3.7 18:31:27 10° E 18:33:50 14° NE 18:36:13 10° NNE
Cosmos 1743 2.9 18:30:40 10° SSE 18:34:03 42° E 18:37:27 10° NNE
CZ-4B DEB 4.3 18:28:35 10° SSE 18:34:07 89° ENE 18:39:40 10° NNW
SeaSat 1 4.0 18:30:43 10° NNE 18:35:18 40° NW 18:39:52 10° WSW
Tsikada Rocket 4.1 18:29:02 10° N 18:35:20 87° E 18:41:39 10° S
Cosmos 2278 Rocket 2.9 18:30:31 10° NNW 18:35:48 38° NE 18:41:05 10° ESE
NOSS 2-1 (C) 3.6 18:33:34 10° NW 18:36:59 53° NE 18:41:26 10° ESE
Cosmos 540 Rocket 4.0 18:32:21 10° SW 18:37:24 63° WNW 18:42:29 10° NNE
Meteor 1-18 Rocket 4.4 18:32:03 10° NNW 18:38:01 80° ENE 18:43:56 10° SSE
Iridium 4 Rocket 3.0 18:36:01 10° N 18:40:18 65° E 18:44:25 10° SSE
Genesis I 2.8 18:38:11 10° SW 18:41:38 76° SE 18:45:09 10° NE
CZ-4B R/B 2.8 18:37:58 10° SSE 18:41:44 88° E 18:45:45 10° NNW
CZ-4B R/B 3.3 18:36:21 10° SSE 18:41:46 64° ENE 18:47:07 10° N
ERS-1 Rocket 4.5 18:39:45 10° ESE 18:43:20 20° NE 18:46:56 10° N
USA 290 3.6 18:41:58 10° N 18:44:45 25° NE 18:47:00 13° ESE
Cosmos 2016 Rocket 4.2 18:38:52 10° SSW 18:44:57 79° W 18:51:07 10° N
TSX-5 3.2 18:42:38 10° NNW 18:45:48 63° NE 18:48:42 12° SE
Resurs 1-3 4.4 18:41:40 10° S 18:45:55 54° W 18:50:12 10° NNW
CARTOSAT-1 3.5 18:43:19 10° SSE 18:47:32 70° ENE 18:51:47 10° N
SPOT 5 3.8 18:45:11 11° ESE 18:49:02 28° ENE 18:52:54 10° N
SPOT 1/Viking Rocket 4.1 18:44:20 10° S 18:49:28 63° WSW 18:54:37 10° NNW
NOSS 8 (A) 4.5 18:48:09 10° SSW 18:52:01 56° SE 18:55:06 10° NE
ATLAS 2AS CENTAUR R/B 3.6 18:46:51 10° WSW 18:53:57 55° NNW 19:00:48 10° NE
USA 306 4.4 18:53:29 10° SSE 18:54:09 12° SE 18:54:09 12° SE
ATLAS CENTAUR R/B 4.2 18:51:10 10° WNW 18:55:35 32° SW 19:02:01 10° SSE
Cosmos 1151 Rocket 3.9 18:52:20 10° NNW 18:56:30 52° W 19:00:38 10° S
ARGOS Delta rocket 4.2 18:52:54 10° S 18:58:05 77° WSW 19:03:00 10° NNW
MOS 1-B 4.4 18:53:08 10° SSE 18:58:53 70° ENE 19:04:39 10° NNW
Cosmos 2360 Rocket 2.6 18:53:28 10° SW 18:59:06 69° NW 19:04:45 10° NNE
Okean O Rocket 1.8 18:54:51 10° SSE 18:59:10 55° ENE 19:03:31 10° N
Cosmos 1340 2.3 18:57:59 10° SSW 19:01:15 82° WNW 19:04:33 10° NNE
USA 186 2.0 18:59:35 10° S 19:02:46 73° WSW 19:06:00 10° NNW
Resurs 01 Rocket 1.7 18:59:18 10° SSE 19:03:44 84° WSW 19:08:12 10° NNW
Cosmos 2237 Rocket 3.4 19:04:46 12° SE 19:08:00 20° E 19:11:55 10° NE
Cosmos 2322 Rocket 3.2 19:02:32 10° SW 19:08:06 51° NW 19:13:40 10° NNE
Helios 1A 3.3 19:04:07 10° N 19:08:11 69° WNW 19:12:12 10° SSW
MOS 1 Rocket 4.3 19:06:49 16° ESE 19:10:08 35° ENE 19:14:50 10° N
Cosmos 1814 Rocket 4.3 19:07:02 10° S 19:12:02 44° ESE 19:17:01 10° NE
ACS3 Solar Sail 1.9 19:05:52 10° SSE 19:12:11 66° ENE 19:18:32 10° N
NOSS 2-1 (E) 3.4 19:09:25 10° NW 19:13:03 89° SW 19:16:32 18° SE
Cosmos 44 Rocket 3.9 19:08:33 10° NW 19:13:11 51° SW 19:17:37 10° SSE
BlueWalker 3 2.0 19:09:34 10° WNW 19:13:17 62° SSW 19:15:32 22° SE
Cosmos 1515 Rocket 3.8 19:10:15 10° N 19:14:28 49° ENE 19:17:32 17° SE
Okean-O 2.9 19:12:12 17° SE 19:15:21 48° ENE 19:19:36 10° N
SL-08 R/B 4.3 19:10:42 10° N 19:15:30 54° WNW 19:20:17 10° SW
Cosmos 2333 Rocket 3.0 19:10:22 10° SW 19:16:04 58° NW 19:21:47 10° NNE
Cosmos 2219 Rocket 2.3 19:14:15 10° SSW 19:19:56 83° WNW 19:25:40 10° NNE
Sich 1 4.4 19:20:26 20° E 19:20:49 20° E 19:23:56 10° NE
MetOp-B 4.4 19:17:45 17° SE 19:21:42 52° ENE 19:26:55 10° N
NOSS 2-1 (D) 3.5 19:19:28 10° NW 19:23:05 72° SW 19:26:15 20° SE
CSL-04 Rocket 3.9 19:18:37 10° S 19:24:00 72° WSW 19:29:20 10° NNW
Cosmos 1842 3.0 19:21:17 10° NNW 19:24:55 86° W 19:27:54 14° S
BREEZE-M DEB (TANK) 2.5 19:22:59 10° SW 19:24:57 35° SSE 19:25:16 34° SE
SL-16 R/B 4.2 19:23:37 10° WSW 19:28:33 30° NW 19:33:31 10° NNE
Cosmos 1766 Rocket 3.6 19:28:47 10° SSW 19:33:08 81° WNW 19:37:32 10° N
USA 267 3.4 19:29:00 18° E 19:34:05 71° NNE 19:40:38 10° WNW
DELTA 2 DEB (DPAF) 4.4 19:30:11 10° NNE 19:34:09 39° E 19:36:01 25° SSE
Cosmos 1500 Rocket 4.4 19:34:22 27° ESE 19:35:10 29° E 19:38:57 10° NNE
SWARM A 4.4 19:34:27 29° SSE 19:35:59 55° E 19:39:27 10° N
Cosmos 1980 4.3 19:31:23 10° SSE 19:36:22 33° ESE 19:41:23 10° NE
IRS-1C Rocket 4.4 19:33:38 24° SE 19:36:33 49° ENE 19:41:38 10° N
Cosmos 2369 Rocket 3.8 19:32:04 10° NNW 19:36:34 23° NE 19:39:53 14° ENE
BREEZE-M R/B 4.1 19:33:26 10° W 19:37:58 68° S 19:49:01 18° ESE
Meteor 2-17 Rocket 4.5 19:32:00 10° NNW 19:38:04 81° W 19:44:07 10° S
Meteor 1-13 Rocket 4.3 19:33:00 10° N 19:38:56 70° ENE 19:43:01 20° SSE
Cosmos 2322 3.6 19:35:04 10° SSW 19:40:43 84° ESE 19:46:25 10° NNE
USA 32 4.3 19:36:09 10° N 19:41:14 48° ENE 19:43:42 28° SE
USA 276 2.0 19:38:49 10° W 19:41:31 51° S 19:41:31 51° S
Cosmos 1400 Rocket 4.3 19:38:17 10° NNW 19:41:48 34° W 19:45:15 10° SSW
Spot 2 Rocket 4.1 19:41:51 28° ESE 19:43:52 40° ENE 19:48:33 10° N
Cosmos 1707 3.0 19:42:56 10° NNW 19:46:27 58° W 19:48:44 20° S
MOS 1 4.3 19:42:10 17° SSE 19:46:39 90° SSE 19:52:23 10° NNW
PSLV R/B 3.8 19:44:58 23° S 19:47:04 68° WSW 19:50:38 10° NNW
Cosmos 1315 Rocket 2.9 19:43:14 10° N 19:47:09 55° ENE 19:48:17 40° SE
Cosmos 1428 Rocket 4.5 19:41:50 10° N 19:47:55 62° ENE 19:51:28 25° SSE
CZ-4 R/B 3.9 19:46:20 10° SW 19:49:06 19° W 19:51:55 10° NW
In-Cosmos 22 4.2 19:43:21 10° NNW 19:49:09 86° ENE 19:53:04 21° SSE
Meteor 2-10 4.2 19:44:17 12° S 19:49:22 60° E 19:54:59 10° NNE
Cosmos 1733 2.8 19:49:19 44° SSE 19:50:12 64° E 19:53:38 10° NNE
Cosmos 1726 4.2 19:48:16 10° WSW 19:50:30 21° WNW 19:52:45 10° NNW
Cosmos 1570 Rocket 4.5 19:49:52 28° SSE 19:51:49 39° ESE 19:56:41 10° NE
Cosmos 1408 Rocket 3.6 19:50:27 32° SSE 19:52:09 53° E 19:56:27 10° NNE
NOSS 3-4 (A) 4.4 19:49:51 10° NW 19:55:56 43° NNE 20:00:35 20° E
NOSS 3-4 (C) 4.4 19:49:57 10° NW 19:56:02 43° NNE 20:00:40 20° E
Cosmos 1975 4.5 19:57:50 19° ENE 19:57:50 19° ENE 19:59:38 10° NE
Lacrosse 4 Rocket 3.3 19:53:41 10° NW 19:57:18 26° WSW 20:00:26 12° SSW
Cosmos 1536 2.6 19:55:07 20° S 19:57:41 88° WNW 20:01:33 10° N
COSMOS 2428 2.7 19:54:05 10° SSW 19:59:48 88° WNW 20:05:36 10° NNE
Cosmos 1818 3.7 19:54:42 10° SW 20:00:10 78° NW 20:05:42 10° NE
Nadezhda 4 Rocket 4.0 19:54:35 10° NNW 20:00:50 84° W 20:05:35 19° S
Cosmos 2195 Rocket 4.4 19:54:43 10° N 20:00:51 68° ENE 20:03:58 30° SSE
Meteor 1-23 Rocket 4.2 19:55:19 10° N 20:00:55 65° ENE 20:03:21 34° SE
Meteor 1-4 Rocket 4.2 19:58:52 10° NW 20:01:02 22° W 20:02:21 16° SW
Cosmos 1356 Rocket 4.2 19:56:59 10° NNW 20:01:02 49° W 20:03:50 18° SSW
Cosmos 1092 Rocket 4.1 19:56:44 10° N 20:02:59 60° ENE 20:05:51 33° SE
Cosmos 1943 Rocket 2.1 19:58:28 10° NNW 20:04:01 88° WSW 20:06:28 35° SSE
SL-16 R/B 4.1 20:07:18 13° ENE 20:07:18 13° ENE 20:08:21 10° ENE
SL-14 R/B 3.2 20:05:14 10° N 20:08:59 56° ENE 20:09:03 56° E
Cosmos 2026 Rocket 4.0 20:03:31 10° N 20:09:48 68° ENE 20:12:31 35° SSE
USA 59 Rocket 1.2 20:06:25 10° WNW 20:09:58 35° SW 20:11:54 25° S
Terra 1.7 20:09:11 44° SE 20:10:38 74° ENE 20:15:22 10° NNW
Cosmos 1464 Rocket 4.1 20:06:32 10° SSW 20:12:50 79° WNW 20:19:16 10° N
Cosmos 158 Rocket 4.0 20:13:21 47° ESE 20:13:36 47° ESE 20:18:16 10° NE
CRYOSAT 2 4.2 20:09:24 10° N 20:14:19 76° E 20:16:10 38° S
Cosmos 1805 Rocket 3.5 20:14:27 57° ESE 20:14:46 58° E 20:19:02 10° NNE
Meteor 1-11 Rocket 3.6 20:09:42 13° S 20:14:49 86° ESE 20:20:26 10° NNE
Ariane Rocket 3.1 20:14:46 45° SE 20:16:05 61° ENE 20:21:06 10° N
Cosmos 1125 Rocket 3.6 20:11:30 10° NNW 20:16:41 71° WSW 20:18:45 36° S
SPOT 3 Rocket 3.6 20:17:15 45° SE 20:18:35 61° ENE 20:23:41 10° N
Cosmos 1634 Rocket 4.2 20:17:05 38° SE 20:18:53 49° E 20:24:56 10° NNE
USA 290 3.9 20:16:17 10° NW 20:19:08 28° WSW 20:19:43 26° SW
Cosmos 2278 Rocket 2.8 20:14:36 10° NW 20:20:04 50° WSW 20:22:57 26° S
Cosmos 839 Rocket 4.5 20:12:28 10° SSW 20:20:55 60° ESE 20:27:42 10° NE
ERS-1 Rocket 3.0 20:19:35 38° S 20:21:31 80° WSW 20:26:35 10° NNW
BREEZE-M DEB (TANK) 4.3 20:20:05 10° W 20:23:33 66° S 20:26:06 37° ESE
Meteor 2-9 Rocket 4.0 20:20:43 24° S 20:23:59 88° ESE 20:29:26 10° NNE
Cosmos 1862 Rocket 4.3 20:20:03 10° N 20:24:00 38° ENE 20:24:00 38° ENE
Okean 3 4.4 20:21:01 10° N 20:24:22 34° NE 20:24:22 34° NE
SPOT 5 3.7 20:24:19 23° SSW 20:26:54 45° W 20:31:17 10° NNW
Cosmos 1707 Rocket 3.9 20:25:11 10° N 20:29:24 48° ENE 20:29:24 48° ENE
Cosmos 2034 Rocket 4.0 20:26:34 17° SSW 20:31:36 82° W 20:37:50 10° N
Celestis-02/Orion 38 4.5 20:28:06 10° NE 20:33:13 62° ESE 20:34:00 55° SSE
Cosmos 1627 Rocket 4.5 20:28:16 10° N 20:34:39 86° W 20:37:11 39° S
Okean O Rocket 3.9 20:32:22 10° SW 20:35:45 21° W 20:39:09 10° NW
Cosmos 2208 Rocket 3.9 20:35:48 58° SSE 20:36:29 65° ESE 20:41:46 10° NNE
NOSS 0 Rocket 4.0 20:34:11 10° SW 20:40:26 79° NW 20:46:44 10° NNE
USA 215 3.3 20:34:05 10° ENE 20:40:27 51° SE 20:46:47 10° SW
Cosmos 1656 Rocket 3.8 20:39:46 10° NNW 20:45:25 60° NE 20:46:20 53° E
Meteor 1-21 4.2 20:40:30 10° NNW 20:46:16 86° WSW 20:47:41 54° S
ATLAS 2AS CENTAUR R/B 4.3 20:39:57 10° WNW 20:46:16 33° N 20:52:22 10° NE
Cosmos 2228 Rocket 3.1 20:42:04 10° N 20:46:31 73° ENE 20:46:31 73° ENE
Meteor 2-12 Rocket 4.4 20:41:29 10° NNW 20:47:40 85° W 20:49:33 48° S
MOS 1 Rocket 4.5 20:45:58 27° SSW 20:48:09 42° W 20:53:05 10° NNW
BlueWalker 3 4.2 20:48:13 10° W 20:49:46 16° WSW 20:49:46 16° WSW
Cosmos 2237 Rocket 2.1 20:46:17 13° SSW 20:51:22 84° WNW 20:57:02 10° NNE
Cosmos 2297 3.8 20:47:28 10° NNW 20:53:05 61° NE 20:53:48 56° E
Cosmos 1805 4.0 20:55:18 47° NW 20:55:18 47° NW 20:58:27 10° N
Aureole 3 Rocket 4.3 20:47:44 11° SSW 20:55:00 66° WNW 21:00:18 10° N
ARIANE 5 R/B 4.2 20:56:43 25° NE 20:56:43 25° NE 20:59:37 10° N
ACS3 Solar Sail 3.5 20:51:19 10° SSW 20:56:44 29° W 21:02:12 10° NNW
Sich 1 3.7 20:57:04 44° WSW 20:57:50 51° WNW 21:02:04 10° N
CZ-4C R/B 3.9 20:55:15 10° N 20:58:28 55° NNW 20:58:28 55° NNW
Cosmos 2279 Rocket 3.8 21:06:50 65° SE 21:07:34 72° E 21:13:47 10° NNE
NOSS 3-3 (C) 4.2 21:09:29 48° ENE 21:09:29 48° ENE 21:14:27 10° NE
BREEZE-M DEB (TANK) 3.4 20:56:37 10° W 21:10:23 68° SSW 21:10:46 66° S
USA 267 3.2 21:16:20 57° S 21:17:13 62° SW 21:23:44 10° WNW
Cosmos 1980 4.3 21:14:39 10° SW 21:20:13 54° NW 21:25:50 10° NNE
Cosmos 2369 Rocket 2.1 21:15:46 10° NNW 21:21:32 78° ENE 21:21:39 77° ENE
NOSS 3-3 (A) 3.8 21:25:46 71° ENE 21:25:46 71° ENE 21:31:44 10° NE
Cosmos 1975 4.4 21:32:52 32° NW 21:32:52 32° NW 21:35:43 10° N
SL-08 ROCKET BODY 4.3 21:27:08 10° N 21:33:23 80° E 21:33:33 79° ESE
Cosmos 1607 4.4 21:44:29 50° ENE 21:44:29 50° ENE 21:49:20 10° NE
Cosmos 1943 Rocket 4.1 21:43:29 10° WNW 21:46:58 17° W 21:47:58 16° WSW
Okean 1-7 4.2 21:42:49 10° NNW 21:45:43 40° NNW 21:45:43 40° NNW
NOSS 3-4 (A) 3.7 21:40:41 10° NW 21:47:23 78° SW 21:47:59 73° S
NOSS 3-4 (C) 3.7 21:40:47 10° NW 21:47:29 79° SW 21:48:05 73° S
ASTEX 1 4.3 21:49:00 42° NNE 21:49:00 42° NNE 21:52:30 10° N
SL-16 R/B 2.5 21:49:08 61° NE 21:49:08 61° NE 21:53:47 10° NNE
Terra 4.0 21:47:52 17° WSW 21:48:45 17° W 21:51:52 10° NW
Meteor 2-5 Rocket 4.4 21:47:51 10° N 21:53:13 49° NE 21:53:13 49° NE
Cosmos 2266 Rocket 4.0 21:49:11 10° NNW 21:55:23 75° W 21:55:29 75° WSW
Cosmos 2263 4.4 21:52:20 10° NNW 21:57:25 69° NW 21:57:25 69° NW
ALOS 2 4.3 22:02:50 29° NNE 22:02:50 29° NNE 22:05:22 10° N
Cosmos 2344 4.3 21:57:22 10° NW 22:04:55 55° NNE 22:10:20 27° E
H-2A R/B 4.4 22:10:17 26° NNE 22:10:17 26° NNE 22:12:25 10° N
Cosmos 1943 4.5 22:16:28 31° NE 22:16:28 31° NE 22:19:29 10° NE
Meteor 1-24 Rocket 4.1 22:09:27 10° N 22:14:47 63° NNE 22:14:47 63° NNE
Cosmos 1655 Rocket 4.0 22:09:49 10° NNW 22:15:58 77° WNW 22:15:58 77° WNW
USA 215 3.3 22:17:10 10° ENE 22:23:44 77° NNW 22:30:16 10° WSW
ARIANE 5 R/B 4.5 22:34:11 27° NW 22:34:11 27° NW 22:36:23 10° NNW
Cosmos 2237 Rocket 4.3 22:31:46 10° W 22:36:16 24° NW 22:40:46 10° NNE
ATLAS 2AS CENTAUR R/B 3.9 22:32:28 10° NW 22:38:55 38° NNE 22:43:40 17° E
Cosmos 2369 Rocket 4.1 23:00:39 10° NW 23:03:25 20° W 23:03:25 20° W
ATLAS CENTAUR R/B 4.0 23:11:25 16° N 23:11:25 16° N 23:12:47 10° NNE
S3M 4.5 23:21:51 52° NE 23:21:51 52° NE 23:26:54 10° NNE
Cosmos 1980 Rocket 4.0 23:24:40 10° NNW 23:29:21 26° NE 23:31:54 19° ENE
Cosmos 1745 Rocket 4.2 23:23:44 10° N 23:29:08 68° NNW 23:29:08 68° NNW
SL-16 R/B 4.0 23:30:58 22° WNW 23:32:54 26° NW 23:37:38 10° NNE
Cosmos 1452 Rocket 4.5 23:29:00 10° NNW 23:33:03 44° NNE 23:33:03 44° NNE
CZ-2C R/B 4.3 23:40:58 24° ENE 23:41:39 25° ENE 23:45:48 10° N
Cosmos 1603 4.3 23:45:57 54° N 23:45:57 54° N 23:50:34 10° NNE
USA 281 4.5 23:47:53 18° E 23:52:02 36° NE 23:57:57 10° NNW
